User: anonymous
Location: Cypress Hills Dark-Sky Preserve - CHICO
(49.6176°N, 110.2634°W)
Time: 05:20:57
(UTC-06:00)
Language:

SPOT 5 - Orbit

View from above orbital plane
View from above orbital plane
View from above satellite
View from above satellite

Ground track
Ground track

The orbit data is extracted from the following two-line orbital elements,

1 27421U 02021A   14293.20446958  .00000164  00000-0  96788-4 0   464
2 27421 098.5473 352.2780 0001384 100.2715 351.7498 14.20114583646061
Epoch (UTC): 20 October 2014 04:54:26
Eccentricity: 0.0001384
inclination: 98.5473°
perigee height: 824 km
apogee height: 826 km
right ascension of ascending node: 352.2780°
argument of perigee: 100.2715°
revolutions per day: 14.20114583
mean anomaly at epoch: 351.7498°
orbit number at epoch: 64606

The dashed part of the orbit path shows where the satellite is in the earth's shadow,  

DLR